CZ-2D DEB, 43402

Orbit data source: Space-Track

CZ-2D DEB, 43402 is space debris in SSO originally from a launch on Sat, 29 Sep 2012 UTC launched from the Jiuquan Satellite Launch Center, China (JSC). Debris objects in space refer to the collection of defunct objects orbiting the Earth. Examples of debris include non-operational satellites, rocket bodies, and fragments generated from explosions, collisions, or faulty payload assembly.

Loading next visibility...
Identifier
43402, 2012-052B
Orbit
SSO
Country
Flag of CNCN / PRC
Related business
Manufacturer
SAST
Mission
Spacecraft
Bus & Motor
Unknown
Mass
Unknown
Launch date (UTC)
2012-09-29 (14 years ago)
Launch vehicle
Unknown
Launch site
Jiuquan Satellite Launch Center, China (JSC)
Object type
Payload
Rocket body
Debris
Shape & HBR
Unknown shape, 0.1 m
Radar Cross Section
Small (<0.1 m²)

Expand to show TLE details & history
Last TLE update: 1 day ago

TLE from 1 day ago
0 CZ-2D DEB
1 43402U 12052B   26094.72076198  .00003774  00000-0  96510-3 0  9999
2 43402  98.0766 195.6270 0203456 268.6844  89.1031 14.39322308644202
Epoch: 2026-04-04T17:17Z
TLE epoch observation values (Epoch: 2026-04-04T17:17:53.835Z)
Latitude
-0.00004°
Longitude
103.11621°
Altitude
764.382 km
Speed
7.472 km/s
True Right ascension
13h 02m 30s
True Declination
0° 00' 00"
Sunlit
Object was in full shadow at epoch
Visualization orbit readout
Latitude
Unknown
Longitude
Unknown
Altitude
Unknown
Speed
Unknown
Apparent Right ascension
Unknown
Apparent Declination
Unknown
Sunlit
N/A
Visualization observer readout
Local Sidereal Time
23:15:04
Azimuth
Unknown
Elevation
Unknown
Doppler factor
Unknown
Orbital elements
Apogee altitude
903.026 km
Perigee altitude
612.654 km
Semi-major axis
7,135.977 km
Eccentricity
0.02035
Inclination
98.0766°
RAAN
195.627°
Arg. of periapsis
268.6844°
True anomaly
91.43453°
Mean anomaly
89.1031°
Eccentric anomaly
90.2688°
Mean motion
3.6005 °/min
Orbital period
99.99 mins
BSTAR
0.0009651
Loading maneuver chart data...
Computing Atmospheric mass density...
Loading historical data...
Loading historical data...
Loading historical data...
Loading historical data...
Loading historical data...
Loading historical data...
Loading historical data...
Other satellites on launch #52 in the year 2012 (2012-09-29 UTC)

Documentation

Showing up to 5 results
|